When you browse on this site, cookies collect data to enhance your experience and personalize the content and advertising you see.
Visit our Privacy Policy to learn more. By continuing to use the site, you agree to this use of cookies and data.
  • In Hungary
  • List of Countries
  • For 7 days
  • Water Temperature
  • Satellite Maps
  • Weather Map
  • News
  • Weather Widgets
  • user-avatar
    Login

    Hourly Weather Maastricht

    Today, 17 January, Thursday

    Time Temperature Precipitation Wind Pressure Humidity
    00:00 +3°C° 0.9 mm 7 mps 746 mmHg 86%
    01:00 +4°C° 0.5 mm 6 mps 746 mmHg 87%
    02:00 +5°C° 0.5 mm 5 mps 746 mmHg 89%
    03:00 +5°C° 0.5 mm 4 mps 746 mmHg 90%
    04:00 +4°C° 0 mm 4 mps 746 mmHg 91%
    05:00 +3°C° 0 mm 4 mps 746 mmHg 92%
    06:00 +3°C° 0 mm 4 mps 746 mmHg 93%
    07:00 +3°C° 0.5 mm 4 mps 746 mmHg 91%
    08:00 +3°C° 0.5 mm 5 mps 746 mmHg 90%
    09:00 +3°C° 0.5 mm 6 mps 746 mmHg 89%
    10:00 +3°C° 1.1 mm 6 mps 747 mmHg 87%
    11:00 +3°C° 1.1 mm 6 mps 747 mmHg 85%
    12:00 +3°C° 1.1 mm 6 mps 747 mmHg 84%
    13:00 +3°C° 0.3 mm 5 mps 748 mmHg 79%
    14:00 +3°C° 0.3 mm 5 mps 748 mmHg 74%
    15:00 +3°C° 0.3 mm 4 mps 749 mmHg 70%
    16:00 +3°C° 0.1 mm 4 mps 750 mmHg 70%
    17:00 +1°C° 0.1 mm 4 mps 751 mmHg 71%
    18:00 +1°C° 0.1 mm 4 mps 752 mmHg 72%
    19:00 0°C° 0 mm 4 mps 753 mmHg 74%
    20:00 0°C° 0 mm 4 mps 753 mmHg 75%
    21:00 0°C° 0 mm 3 mps 754 mmHg 76%
    22:00 0°C° 0 mm 3 mps 754 mmHg 77%
    23:00 0°C° 0 mm 3 mps 755 mmHg 78%

    Tomorrow, 18 January, Friday

    Time Temperature Precipitation Wind Pressure Humidity
    00:00 0°C° 0 mm 3 mps 756 mmHg 79%
    01:00 -1°C° 0 mm 3 mps 756 mmHg 81%
    02:00 -1°C° 0 mm 3 mps 757 mmHg 82%
    03:00 -1°C° 0 mm 2 mps 757 mmHg 84%
    04:00 -1°C° 0 mm 2 mps 757 mmHg 85%
    05:00 -1°C° 0 mm 2 mps 758 mmHg 85%
    06:00 +1°C° 0 mm 1 mps 758 mmHg 85%
    07:00 +1°C° 0 mm 1 mps 758 mmHg 83%
    08:00 +1°C° 0 mm 1 mps 759 mmHg 82%
    09:00 +1°C° 0 mm 2 mps 759 mmHg 80%
    10:00 +3°C° 0 mm 1 mps 759 mmHg 74%
    11:00 +4°C° 0 mm 1 mps 759 mmHg 68%
    12:00 +5°C° 0 mm 1 mps 759 mmHg 62%
    13:00 +5°C° 0 mm 1 mps 759 mmHg 63%
    14:00 +5°C° 0 mm 1 mps 758 mmHg 63%
    15:00 +3°C° 0 mm 0 mps 758 mmHg 63%
    16:00 +3°C° 0 mm 1 mps 758 mmHg 65%
    17:00 +3°C° 0 mm 1 mps 758 mmHg 67%
    18:00 +1°C° 0 mm 2 mps 758 mmHg 68%
    19:00 +1°C° 0 mm 2 mps 758 mmHg 70%
    20:00 -1°C° 0 mm 2 mps 758 mmHg 71%
    21:00 -1°C° 0 mm 2 mps 758 mmHg 73%
    22:00 -1°C° 0 mm 2 mps 758 mmHg 73%
    23:00 -2°C° 0 mm 2 mps 758 mmHg 74%

    Day after tomorrow, 19 January, Saturday

    Time Temperature Precipitation Wind Pressure Humidity
    00:00 -2°C° 0 mm 2 mps 758 mmHg 74%
    01:00 -2°C° 0 mm 2 mps 757 mmHg 75%
    02:00 -2°C° 0 mm 2 mps 757 mmHg 75%
    03:00 -2°C° 0 mm 2 mps 756 mmHg 75%
    04:00 -2°C° 0 mm 2 mps 756 mmHg 75%
    05:00 -2°C° 0 mm 2 mps 756 mmHg 75%
    06:00 -2°C° 0 mm 3 mps 756 mmHg 75%
    07:00 -2°C° 0 mm 3 mps 755 mmHg 72%
    08:00 -1°C° 0 mm 3 mps 755 mmHg 68%
    09:00 -1°C° 0 mm 3 mps 755 mmHg 65%
    10:00 0°C° 0 mm 3 mps 755 mmHg 61%
    11:00 +1°C° 0 mm 3 mps 754 mmHg 57%
    12:00 +2°C° 0 mm 3 mps 754 mmHg 53%
    13:00 +2°C° 0 mm 3 mps 753 mmHg 55%
    14:00 +3°C° 0 mm 2 mps 753 mmHg 58%
    15:00 +3°C° 0 mm 2 mps 753 mmHg 60%
    16:00 +2°C° 0 mm 2 mps 752 mmHg 62%
    17:00 +2°C° 0 mm 2 mps 752 mmHg 65%
    18:00 +1°C° 0 mm 2 mps 752 mmHg 67%
    19:00 +1°C° 0 mm 2 mps 753 mmHg 70%
    20:00 -1°C° 0 mm 2 mps 753 mmHg 73%
    21:00 -1°C° 0 mm 2 mps 753 mmHg 77%
    22:00 -1°C° 0.1 mm 2 mps 753 mmHg 78%
    23:00 +1°C° 0.1 mm 2 mps 753 mmHg 80%

    20 January, Sunday

    Time Temperature Precipitation Wind Pressure Humidity
    00:00 +1°C° 0.1 mm 2 mps 753 mmHg 82%
    01:00 +1°C° 0.1 mm 2 mps 753 mmHg 83%
    02:00 +1°C° 0.1 mm 2 mps 753 mmHg 84%
    03:00 +2°C° 0.1 mm 1 mps 753 mmHg 85%
    04:00 +1°C° 0 mm 1 mps 753 mmHg 86%
    05:00 +1°C° 0 mm 1 mps 753 mmHg 87%
    06:00 0°C° 0 mm 1 mps 753 mmHg 88%
    07:00 +1°C° 0 mm 1 mps 753 mmHg 86%
    08:00 +1°C° 0 mm 1 mps 754 mmHg 84%
    09:00 +2°C° 0 mm 1 mps 754 mmHg 82%
    10:00 +3°C° 0 mm 1 mps 754 mmHg 79%
    11:00 +4°C° 0 mm 1 mps 755 mmHg 75%
    12:00 +5°C° 0 mm 1 mps 755 mmHg 72%
    13:00 +4°C° 0 mm 1 mps 755 mmHg 74%
    14:00 +4°C° 0 mm 1 mps 755 mmHg 77%
    15:00 +3°C° 0 mm 2 mps 755 mmHg 79%
    16:00 +2°C° 0 mm 2 mps 756 mmHg 81%
    17:00 +1°C° 0 mm 2 mps 757 mmHg 84%
    18:00 -1°C° 0 mm 2 mps 757 mmHg 86%
    19:00 +1°C° 0 mm 1 mps 758 mmHg 86%
    20:00 +1°C° 0 mm 1 mps 758 mmHg 85%
    21:00 0°C° 0 mm 1 mps 759 mmHg 85%
    22:00 0°C° 0 mm 1 mps 759 mmHg 86%
    23:00 0°C° 0 mm 1 mps 760 mmHg 86%

    21 January, Monday

    Time Temperature Precipitation Wind Pressure Humidity
    00:00 0°C° 0 mm 1 mps 760 mmHg 87%
    01:00 0°C° 0 mm 1 mps 760 mmHg 87%
    02:00 0°C° 0 mm 1 mps 760 mmHg 87%
    03:00 -1°C° 0 mm 1 mps 760 mmHg 88%
    04:00 -1°C° 0 mm 1 mps 761 mmHg 88%
    05:00 -1°C° 0 mm 1 mps 761 mmHg 88%
    06:00 -1°C° 0 mm 1 mps 761 mmHg 88%
    07:00 0°C° 0 mm 1 mps 761 mmHg 85%
    08:00 0°C° 0 mm 1 mps 762 mmHg 82%
    09:00 +1°C° 0 mm 1 mps 762 mmHg 79%
    10:00 +2°C° 0 mm 1 mps 762 mmHg 74%
    11:00 +3°C° 0 mm 1 mps 762 mmHg 70%
    12:00 +4°C° 0 mm 1 mps 762 mmHg 65%
    13:00 +3°C° 0 mm 1 mps 761 mmHg 67%
    14:00 +3°C° 0 mm 1 mps 761 mmHg 69%
    15:00 +3°C° 0 mm 1 mps 761 mmHg 71%
    16:00 +2°C° 0 mm 1 mps 761 mmHg 74%
    17:00 +1°C° 0 mm 1 mps 761 mmHg 76%
    18:00 0°C° 0 mm 1 mps 761 mmHg 79%
    19:00 0°C° 0 mm 1 mps 760 mmHg 79%
    20:00 0°C° 0 mm 1 mps 760 mmHg 79%
    21:00 -2°C° 0 mm 2 mps 760 mmHg 79%
    22:00 -2°C° 0 mm 2 mps 759 mmHg 79%
    23:00 -3°C° 0 mm 2 mps 758 mmHg 80%

    22 January, Tuesday

    Time Temperature Precipitation Wind Pressure Humidity
    00:00 -3°C° 0 mm 2 mps 758 mmHg 80%
    01:00 -3°C° 0 mm 2 mps 757 mmHg 79%
    02:00 -3°C° 0 mm 2 mps 756 mmHg 79%
    03:00 -3°C° 0 mm 2 mps 755 mmHg 79%
    04:00 -4°C° 0 mm 3 mps 754 mmHg 80%
    05:00 -4°C° 0 mm 3 mps 753 mmHg 81%
    06:00 -4°C° 0 mm 4 mps 752 mmHg 82%
    07:00 -3°C° 0 mm 4 mps 751 mmHg 79%
    08:00 -3°C° 0 mm 4 mps 751 mmHg 76%
    09:00 -2°C° 0 mm 5 mps 750 mmHg 73%
    10:00 -1°C° 0 mm 5 mps 749 mmHg 70%
    11:00 0°C° 0 mm 5 mps 747 mmHg 66%
    12:00 0°C° 0 mm 5 mps 746 mmHg 63%
    13:00 0°C° 0 mm 5 mps 745 mmHg 65%
    14:00 0°C° 0 mm 5 mps 744 mmHg 67%
    15:00 0°C° 0 mm 4 mps 743 mmHg 69%
    16:00 -1°C° 0 mm 4 mps 743 mmHg 71%
    17:00 -2°C° 0 mm 4 mps 742 mmHg 73%
    18:00 -2°C° 0 mm 4 mps 742 mmHg 75%
    19:00 -2°C° 0 mm 4 mps 742 mmHg 75%
    20:00 -2°C° 0 mm 4 mps 742 mmHg 74%
    21:00 -2°C° 0 mm 4 mps 742 mmHg 74%
    22:00 -2°C° 0 mm 4 mps 742 mmHg 74%
    23:00 -2°C° 0 mm 4 mps 742 mmHg 74%
    Show more